Location: Squirrel Cove
(50.1074°N, 124.9139°W)
Time: 01:09:33
(UTC-08:00)

BlueWalker 3 - Pass Details

Date: 02 December 2022
Orbit: 499 x 517 km, 53.2° (Epoch: 29 January)

Event Time Altitude Azimuth Distance (km) Brightness Sun altitude
Rises 17:24:23 0° 268° (W) 2,632 7.1 -9.9°
Reaches altitude 10° 17:26:37 10° 273° (W) 1,742 5.8 -10.3°
Maximum altitude 17:30:30 56° 352° (N) 615 2.3 -10.8°
Enters shadow 17:33:23 17° 68° (ENE) 1,352 3.4 -11.3°
